Hourly Weather Zhukovo

Today, 11 August, Tuesday

Time Temperature Precipitation Wind Pressure Humidity
00:00 +18°C° 0 mm 2 mps 746 mmHg 75%
01:00 +18°C° 0 mm 2 mps 746 mmHg 76%
02:00 +17°C° 0 mm 2 mps 746 mmHg 76%
03:00 +16°C° 0 mm 2 mps 745 mmHg 77%
04:00 +16°C° 0 mm 2 mps 746 mmHg 79%
05:00 +16°C° 0 mm 2 mps 746 mmHg 80%
06:00 +17°C° 0 mm 2 mps 746 mmHg 83%
07:00 +19°C° 0 mm 2 mps 746 mmHg 77%
08:00 +21°C° 0 mm 2 mps 746 mmHg 71%
09:00 +24°C° 0 mm 3 mps 746 mmHg 64%
10:00 +26°C° 0 mm 3 mps 746 mmHg 59%
11:00 +27°C° 0 mm 3 mps 745 mmHg 54%
12:00 +29°C° 0 mm 3 mps 745 mmHg 48%
13:00 +30°C° 0 mm 3 mps 745 mmHg 47%
14:00 +30°C° 0 mm 3 mps 745 mmHg 46%
15:00 +31°C° 0 mm 3 mps 745 mmHg 44%
16:00 +30°C° 0 mm 3 mps 745 mmHg 49%
17:00 +30°C° 0 mm 2 mps 745 mmHg 54%
18:00 +29°C° 0 mm 2 mps 745 mmHg 59%
19:00 +27°C° 0 mm 2 mps 745 mmHg 63%
20:00 +25°C° 0 mm 2 mps 745 mmHg 67%
21:00 +23°C° 0 mm 2 mps 745 mmHg 71%
22:00 +21°C° 0 mm 2 mps 745 mmHg 73%
23:00 +20°C° 0 mm 3 mps 745 mmHg 74%

Tomorrow, 12 August, Wednesday

Time Temperature Precipitation Wind Pressure Humidity
00:00 +20°C° 0 mm 3 mps 745 mmHg 76%
01:00 +19°C° 0.1 mm 2 mps 744 mmHg 78%
02:00 +18°C° 0.1 mm 2 mps 744 mmHg 81%
03:00 +17°C° 0.1 mm 2 mps 744 mmHg 83%
04:00 +17°C° 0.4 mm 2 mps 744 mmHg 85%
05:00 +17°C° 0.4 mm 2 mps 744 mmHg 88%
06:00 +17°C° 0.4 mm 2 mps 744 mmHg 90%
07:00 +19°C° 0 mm 2 mps 744 mmHg 86%
08:00 +20°C° 0 mm 2 mps 743 mmHg 81%
09:00 +22°C° 0 mm 3 mps 743 mmHg 76%
10:00 +25°C° 0 mm 3 mps 743 mmHg 70%
11:00 +27°C° 0 mm 3 mps 743 mmHg 63%
12:00 +29°C° 0 mm 3 mps 743 mmHg 57%
13:00 +29°C° 1 mm 2 mps 743 mmHg 58%
14:00 +29°C° 1 mm 2 mps 742 mmHg 60%
15:00 +29°C° 1 mm 2 mps 742 mmHg 61%
16:00 +28°C° 0.9 mm 2 mps 742 mmHg 68%
17:00 +26°C° 0.9 mm 2 mps 742 mmHg 76%
18:00 +25°C° 0.9 mm 2 mps 741 mmHg 83%
19:00 +23°C° 2.1 mm 2 mps 742 mmHg 87%
20:00 +20°C° 2.1 mm 2 mps 742 mmHg 91%
21:00 +18°C° 2.1 mm 2 mps 742 mmHg 95%
22:00 +18°C° 0.3 mm 2 mps 742 mmHg 95%
23:00 +18°C° 0.3 mm 3 mps 742 mmHg 96%

Day after tomorrow, 13 August, Thursday

Time Temperature Precipitation Wind Pressure Humidity
00:00 +18°C° 0.3 mm 3 mps 742 mmHg 96%
01:00 +18°C° 0 mm 3 mps 742 mmHg 96%
02:00 +17°C° 0 mm 3 mps 742 mmHg 96%
03:00 +17°C° 0 mm 3 mps 742 mmHg 96%
04:00 +16°C° 0 mm 3 mps 742 mmHg 96%
05:00 +16°C° 0 mm 3 mps 743 mmHg 95%
06:00 +14°C° 0 mm 3 mps 743 mmHg 94%
07:00 +17°C° 0 mm 3 mps 743 mmHg 89%
08:00 +19°C° 0 mm 3 mps 743 mmHg 83%
09:00 +20°C° 0 mm 3 mps 743 mmHg 78%
10:00 +22°C° 0 mm 3 mps 743 mmHg 71%
11:00 +24°C° 0 mm 3 mps 743 mmHg 64%
12:00 +26°C° 0 mm 3 mps 743 mmHg 58%
13:00 +25°C° 0.6 mm 3 mps 743 mmHg 63%
14:00 +25°C° 0.6 mm 3 mps 743 mmHg 69%
15:00 +24°C° 0.6 mm 3 mps 743 mmHg 74%
16:00 +24°C° 0.2 mm 2 mps 743 mmHg 75%
17:00 +24°C° 0.2 mm 2 mps 743 mmHg 75%
18:00 +24°C° 0.2 mm 2 mps 743 mmHg 75%
19:00 +23°C° 0 mm 2 mps 743 mmHg 80%
20:00 +20°C° 0 mm 2 mps 743 mmHg 85%
21:00 +18°C° 0 mm 2 mps 743 mmHg 90%
22:00 +18°C° 0 mm 2 mps 743 mmHg 92%
23:00 +17°C° 0 mm 2 mps 743 mmHg 94%

14 August, Friday

Time Temperature Precipitation Wind Pressure Humidity
00:00 +17°C° 0 mm 2 mps 743 mmHg 95%
01:00 +16°C° 0.1 mm 2 mps 743 mmHg 96%
02:00 +16°C° 0.1 mm 2 mps 743 mmHg 96%
03:00 +16°C° 0.1 mm 2 mps 743 mmHg 96%
04:00 +16°C° 0 mm 2 mps 743 mmHg 96%
05:00 +16°C° 0 mm 1 mps 744 mmHg 96%
06:00 +16°C° 0 mm 1 mps 744 mmHg 96%
07:00 +19°C° 0 mm 1 mps 744 mmHg 89%
08:00 +21°C° 0 mm 1 mps 744 mmHg 83%
09:00 +22°C° 0 mm 1 mps 744 mmHg 76%
10:00 +23°C° 0 mm 1 mps 744 mmHg 71%
11:00 +24°C° 0 mm 2 mps 744 mmHg 66%
12:00 +25°C° 0 mm 2 mps 744 mmHg 60%
13:00 +26°C° 0.1 mm 2 mps 744 mmHg 60%
14:00 +26°C° 0.1 mm 2 mps 744 mmHg 60%
15:00 +27°C° 0.1 mm 2 mps 743 mmHg 60%
16:00 +25°C° 0.8 mm 2 mps 744 mmHg 69%
17:00 +24°C° 0.8 mm 2 mps 744 mmHg 78%
18:00 +23°C° 0.8 mm 2 mps 744 mmHg 87%
19:00 +21°C° 0.1 mm 2 mps 744 mmHg 90%
20:00 +20°C° 0.1 mm 1 mps 744 mmHg 93%
21:00 +19°C° 0.1 mm 1 mps 744 mmHg 96%
22:00 +18°C° 0.1 mm 1 mps 745 mmHg 96%
23:00 +18°C° 0.1 mm 1 mps 745 mmHg 96%

15 August, Saturday

Time Temperature Precipitation Wind Pressure Humidity
00:00 +16°C° 0.1 mm 1 mps 745 mmHg 97%
01:00 +16°C° 0.2 mm 1 mps 745 mmHg 97%
02:00 +16°C° 0.2 mm 1 mps 745 mmHg 98%
03:00 +16°C° 0.2 mm 1 mps 746 mmHg 98%
04:00 +16°C° 0.4 mm 1 mps 746 mmHg 98%
05:00 +17°C° 0.4 mm 2 mps 746 mmHg 98%
06:00 +17°C° 0.4 mm 2 mps 746 mmHg 98%
07:00 +17°C° 0.3 mm 2 mps 746 mmHg 98%
08:00 +17°C° 0.3 mm 2 mps 747 mmHg 98%
09:00 +17°C° 0.3 mm 3 mps 747 mmHg 97%
10:00 +17°C° 0.3 mm 3 mps 747 mmHg 97%
11:00 +17°C° 0.3 mm 3 mps 747 mmHg 97%
12:00 +16°C° 0.3 mm 3 mps 747 mmHg 97%
13:00 +16°C° 0.1 mm 3 mps 748 mmHg 96%
14:00 +16°C° 0.1 mm 3 mps 748 mmHg 96%
15:00 +17°C° 0.1 mm 3 mps 749 mmHg 95%
16:00 +16°C° 0.1 mm 3 mps 749 mmHg 95%
17:00 +16°C° 0.1 mm 3 mps 749 mmHg 94%
18:00 +16°C° 0.1 mm 3 mps 749 mmHg 94%
19:00 +16°C° 0 mm 2 mps 750 mmHg 94%
20:00 +16°C° 0 mm 2 mps 750 mmHg 95%
21:00 +15°C° 0 mm 2 mps 750 mmHg 96%
22:00 +15°C° 0 mm 2 mps 750 mmHg 96%
23:00 +15°C° 0 mm 2 mps 750 mmHg 96%

16 August, Sunday

Time Temperature Precipitation Wind Pressure Humidity
00:00 +15°C° 0 mm 2 mps 750 mmHg 97%
01:00 +14°C° 0 mm 2 mps 750 mmHg 97%
02:00 +14°C° 0 mm 1 mps 750 mmHg 97%
03:00 +14°C° 0 mm 1 mps 750 mmHg 97%
04:00 +14°C° 0 mm 1 mps 750 mmHg 97%
05:00 +14°C° 0 mm 1 mps 751 mmHg 97%
06:00 +14°C° 0 mm 1 mps 751 mmHg 96%
07:00 +14°C° 0 mm 1 mps 751 mmHg 95%
08:00 +14°C° 0 mm 1 mps 751 mmHg 94%
09:00 +14°C° 0 mm 1 mps 751 mmHg 93%
10:00 +15°C° 0.1 mm 1 mps 751 mmHg 93%
11:00 +15°C° 0.1 mm 1 mps 751 mmHg 92%
12:00 +15°C° 0.1 mm 1 mps 751 mmHg 92%
13:00 +15°C° 0 mm 1 mps 751 mmHg 90%
14:00 +16°C° 0 mm 1 mps 751 mmHg 88%
15:00 +16°C° 0 mm 1 mps 752 mmHg 86%
16:00 +18°C° 0 mm 1 mps 752 mmHg 86%
17:00 +18°C° 0 mm 1 mps 752 mmHg 86%
18:00 +18°C° 0 mm 1 mps 752 mmHg 86%
19:00 +16°C° 0 mm 1 mps 752 mmHg 89%
20:00 +15°C° 0 mm 1 mps 752 mmHg 92%
21:00 +14°C° 0 mm 1 mps 752 mmHg 96%
22:00 +13°C° 0 mm 1 mps 752 mmHg 96%
23:00 +13°C° 0 mm 1 mps 752 mmHg 96%
Show more